Burlington, NC

9:08 PM EST on February 06, 2016 (GMT -0500)
Burlington-Alamance Regional

Weather History for KBUY - November, 2012

Change the Weather History Date:

Thursday, November 1, 2012

  Actual Average Record
Temperature  
Mean Temperature 47 °F -  
Max Temperature 57 °F 67 °F - (-1)
Min Temperature 39 °F 45 °F - (-1)
Degree Days  
Heating Degree Days 18    
Moisture  
Dew Point 34 °F    
Average Humidity 64    
Maximum Humidity 89    
Minimum Humidity 43    
Precipitation  
Precipitation 0.00 in - - ()
Sea Level Pressure  
Sea Level Pressure 29.79 in    
Wind  
Wind Speed 6 mph (WSW)    
Max Wind Speed 14 mph    
Max Gust Speed 23 mph    
Visibility 10 miles    
Events      
Averages and records for this station are not official NWS values.
T = Trace of Precipitation, MM = Missing Value Source: NWS Daily Summary

Daily Weather History Graph

Daily Weather History Graph

Search for Another Location

Airport or City:

Trip Planner

Search our weather history database for the weather conditions in past years. The results will help you decide how hot, cold, wet, or windy it might be!

Date:

Astronomy

Nov. 01, 2012 Rise Set
Actual Time 7:40 AM EDT 6:21 PM EDT
Civil Twilight 7:14 AM EDT 6:48 PM EDT
Nautical Twilight 6:44 AM EDT 7:18 PM EDT
Astronomical Twilight 6:14 AM EDT 7:48 PM EDT
Moon 8:21 PM EDT (11/1) 10:08 AM EDT (11/1)
Length of Visible Light 11h 33m
Length of Day
10h 40m
Waning Gibbous, 93% of the Moon is Illuminated
Nov 1
Waning Gibbous
Nov 6
Last Quarter
Nov 13
New
Nov 20
First Quarter
Nov 28
Full

Hourly Weather History & Observations

Time (EDT) Temp. Windchill Dew Point Humidity Pressure Visibility Wind Dir Wind Speed Gust Speed Precip Events Conditions
12:54 AM 45.0 °F 43.5 °F 35.1 °F 68% 29.76 in 10.0 mi SSW 3.5 mph - N/A   Overcast
1:54 AM 44.1 °F 41.5 °F 35.1 °F 71% 29.77 in 10.0 mi SW 4.6 mph - N/A   Overcast
2:54 AM 46.0 °F 41.9 °F 35.1 °F 66% 29.76 in 10.0 mi WSW 8.1 mph - N/A   Overcast
3:54 AM 46.0 °F 42.5 °F 35.1 °F 66% 29.76 in 10.0 mi WSW 6.9 mph - N/A   Overcast
4:54 AM 46.0 °F 43.9 °F 35.1 °F 66% 29.75 in 10.0 mi West 4.6 mph - N/A   Overcast
5:54 AM 43.0 °F 40.3 °F 34.0 °F 71% 29.75 in 10.0 mi West 4.6 mph - N/A   Partly Cloudy
6:54 AM 43.0 °F 38.8 °F 33.1 °F 68% 29.77 in 10.0 mi West 6.9 mph - N/A   Clear
7:54 AM 42.1 °F 37.7 °F 34.0 °F 73% 29.78 in 10.0 mi WSW 6.9 mph - N/A   Overcast
8:54 AM 46.9 °F - 33.1 °F 59% 29.79 in 10.0 mi WSW 8.1 mph - N/A   Overcast
9:54 AM 48.9 °F - 32.0 °F 52% 29.80 in 10.0 mi WNW 13.8 mph 21.9 mph N/A   Overcast
10:54 AM 53.1 °F - 33.1 °F 47% 29.80 in 10.0 mi West 12.7 mph 20.7 mph N/A   Clear
11:54 AM 54.0 °F - 33.1 °F 45% 29.81 in 10.0 mi West 12.7 mph 23.0 mph N/A   Mostly Cloudy
12:54 PM 55.0 °F - 33.1 °F 43% 29.79 in 10.0 mi West 11.5 mph 20.7 mph N/A   Mostly Cloudy
2:54 PM 54.0 °F - 33.1 °F 45% 29.76 in 10.0 mi West 13.8 mph 20.7 mph N/A   Overcast
4:54 PM 55.9 °F - 34.0 °F 44% 29.76 in 10.0 mi WNW 10.4 mph 20.7 mph N/A   Partly Cloudy
6:54 PM 50.0 °F - 34.0 °F 54% 29.80 in 10.0 mi West 3.5 mph - N/A   Clear
7:54 PM 46.9 °F - 35.1 °F 63% 29.82 in 10.0 mi WSW 3.5 mph - N/A   Clear
8:54 PM 39.0 °F - 35.1 °F 86% 29.83 in 10.0 mi Calm Calm - N/A   Clear
9:54 PM 39.9 °F - 36.0 °F 86% 29.84 in 10.0 mi Calm Calm - N/A   Clear
10:54 PM 39.9 °F 37.8 °F 37.0 °F 89% 29.84 in 10.0 mi WSW 3.5 mph - N/A   Clear
11:54 PM 39.0 °F 35.7 °F 34.0 °F 82% 29.85 in 10.0 mi West 4.6 mph - N/A   Clear